Retour au catalogue

COSMOS 2251 DEB

ActifLEO
NORAD 34031·DEBRIS·🇷🇺 Russia

Lancé Jun 16, 1993 depuis Plesetsk Cosmodrome

Loading…

Prochains Passages (prochaines 24 heures)

TLE

FraisSource: Space-Track

Époque: Sep 14, 2026, 11:53 UTC

1 34031U 93036HS  26257.49554294  .00002443  00000-0  49106-3 0  9992
2 34031  74.0133 327.8564 0022706  13.8287 358.5365 14.62025554925939

Suivez COSMOS 2251 DEB en temps réel avec AllMySat

Download on the App Store